This is the latest recevied weather packets stored in our database for station/object DH1NAI-6. If no packets are shown the sender has not sent any weather packets the latest 10 day(s).
| Time | Temp. | Humidity | Pressure | Rain* | Wind** | Luminosity | Snow |
|---|---|---|---|---|---|---|---|
| 1778135073 | 8.89° C | 99% | 1007.3 hPa | 1.02 mm | - | 26 W/m² | - |
| 1778134464 | 8.89° C | 99% | 1007.2 hPa | 0 mm | - | 18 W/m² | - |
| 1778133857 | 8.89° C | 99% | 1007.1 hPa | 0 mm | - | 17 W/m² | - |
| 1778132641 | 8.33° C | 99% | 1006.9 hPa | 1.02 mm | - | 10 W/m² | - |
| 1778132032 | 8.89° C | 99% | 1006.8 hPa | 1.02 mm | - | 10 W/m² | - |
| 1778131425 | 8.33° C | 99% | 1006.6 hPa | 1.02 mm | - | 10 W/m² | - |
| 1778130812 | 8.89° C | 99% | 1006.5 hPa | 1.02 mm | - | 6 W/m² | - |
| 1778130209 | 8.89° C | 99% | 1006.4 hPa | 0 mm | - | 4 W/m² | - |
| 1778129600 | 8.89° C | 99% | 1006.4 hPa | 1.02 mm | - | 1 W/m² | - |
| 1778128976 | 8.89° C | 99% | 1006.1 hPa | 1.02 mm | - | 2 W/m² | - |
| 1778128353 | 8.89° C | 99% | 1006.2 hPa | 1.02 mm | - | 1 W/m² | - |
| 1778127744 | 8.89° C | 99% | 1005.9 hPa | 1.02 mm | - | 2 W/m² | - |
| 1778127137 | 8.89° C | 99% | 1005.9 hPa | 1.02 mm | - | 1 W/m² | - |
| 1778126528 | 8.89° C | 99% | 1005.8 hPa | 0 mm | - | 0 W/m² | - |
| 1778125921 | 8.89° C | 99% | 1005.7 hPa | 0 mm | - | 0 W/m² | - |
| 1778125312 | 8.89° C | 99% | 1005.9 hPa | 0 mm | - | 0 W/m² | - |
| 1778124705 | 8.89° C | 99% | 1005.9 hPa | 0 mm | - | 0 W/m² | - |
| 1778124092 | 8.89° C | 99% | 1005.8 hPa | 0 mm | - | 0 W/m² | - |
| 1778123489 | 8.89° C | 99% | 1006 hPa | 0 mm | - | 0 W/m² | - |
| 1778122880 | 8.89° C | 99% | 1006 hPa | 0 mm | - | 0 W/m² | - |
| 1778122256 | 8.89° C | 99% | 1005.8 hPa | 1.02 mm | - | 0 W/m² | - |
| 1778121648 | 8.89° C | 99% | 1005.7 hPa | 1.02 mm | - | 0 W/m² | - |
| 1778121024 | 9.44° C | 99% | 1006 hPa | 1.02 mm | - | 0 W/m² | - |
| 1778120400 | 9.44° C | 99% | 1006 hPa | 1.02 mm | - | 0 W/m² | - |
| 1778119792 | 9.44° C | 99% | 1005.7 hPa | 1.02 mm | - | 0 W/m² | - |
* Rain latest hour (hover to see other rain measurements)
** Current wind speed in m/s (hover to see current wind gust speed)